User: anonymous   Login
Location: Unspecified
(0.0000°N, 0.0000°E)
Time: 13:46:23
(UTC+02:00)
Language:

NATO 3D Rocket - Orbit

View from above orbital plane
View from above orbital plane
View from above satellite
View from above satellite

Ground track
Ground track

The orbit data is extracted from the following two-line orbital elements,

1 15392U 84115B   15181.97615644  .00000180  00000-0  13253-4 0  9994
2 15392 021.5008 348.3660 1034628 282.9419 266.2735 12.45502613394520
Epoch (UTC): 30 June 2015 23:25:39
Eccentricity: 0.1034628
inclination: 21.5008°
perigee height: 670 km
apogee height: 2297 km
right ascension of ascending node: 348.3660°
argument of perigee: 282.9419°
revolutions per day: 12.45502613
mean anomaly at epoch: 266.2735°
orbit number at epoch: 39452

The dashed part of the orbit path shows where the satellite is in the earth's shadow,  

DLR